K7KRJ-10 Weather Reports


time (UTC)temp
C
wind
direction
speed
KPH
gust
KPH
rain 1hr
cm
rain 24hr
cm
rain mn
cm
humidity
%
barometer
mb
20260502122339 21 14 3.2 3.2 0.00 0.00 0.00 25 1010.3
20260502120838 21 19 3.2 3.2 0.00 0.00 0.00 25 1010.4
20260502115335 20 13 3.2 3.2 0.00 0.00 0.00 27 1010.4
20260502113831 21 47 3.2 1.6 0.00 0.00 0.00 25 1010.1
20260502112329 21 83 0.0 1.6 0.00 0.00 0.00 25 1010.0
20260502110828 21 13 0.0 1.6 0.00 0.00 0.00 25 1010.2
20260502105325 21 14 1.6 3.2 0.00 0.00 0.00 24 1010.2
20260502103823 22 1 3.2 3.2 0.00 0.00 0.00 24 1009.9
20260502102320 21 10 1.6 4.8 0.00 0.00 0.00 24 1009.7
20260502100820 22 169 0.0 1.6 0.00 0.00 0.00 25 1010.0
20260502090813 23 55 1.6 1.6 0.00 0.00 0.00 22 1009.7
20260502070749 23 3 4.8 8.0 0.00 0.00 0.00 26 1009.4
20260502065248 23 107 4.8 4.8 0.00 0.00 0.00 25 1009.2
20260502063746 24 79 1.6 1.6 0.00 0.00 0.00 25 1008.9
20260502062245 24 89 4.8 8.0 0.00 0.00 0.00 23 1008.8
20260502060741 23 100 0.0 0.0 0.00 0.00 0.00 24 1008.8
20260502055238 24 109 3.2 3.2 0.00 0.00 0.00 23 1008.7
20260502053738 25 103 3.2 4.8 0.00 0.00 0.00 23 1008.3
20260502052236 25 88 4.8 4.8 0.00 0.00 0.00 23 1008.2
20260502050734 25 90 3.2 3.2 0.00 0.00 0.00 22 1008.3
20260502045230 25 125 1.6 1.6 0.00 0.00 0.00 22 1008.2
20260502043727 25 118 1.6 1.6 0.00 0.00 0.00 22 1008.1
20260502042227 26 115 3.2 3.2 0.00 0.00 0.00 21 1008.0
20260502040725 26 168 1.6 1.6 0.00 0.00 0.00 20 1008.1
20260502035220 26 169 1.6 1.6 0.00 0.00 0.00 20 1007.9
20260502033719 27 175 1.6 1.6 0.00 0.00 0.00 20 1007.5
20260502032215 27 182 3.2 3.2 0.00 0.00 0.00 19 1007.5
20260502030710 28 200 3.2 3.2 0.00 0.00 0.00 18 1007.3
20260502025208 28 212 4.8 9.7 0.00 0.00 0.00 18 1007.2
20260502023707 28 218 6.4 11.3 0.00 0.00 0.00 18 1006.9
20260502022203 28 199 8.0 11.3 0.00 0.00 0.00 18 1006.8
20260502020701 29 187 4.8 9.7 0.00 0.00 0.00 17 1006.6
20260502015157 30 214 8.0 11.3 0.00 0.00 0.00 17 1006.6
20260502013654 30 210 8.0 11.3 0.00 0.00 0.00 16 1006.5
20260502012151 30 195 4.8 9.7 0.00 0.00 0.00 18 1006.4
20260502010647 30 251 4.8 8.0 0.00 0.00 0.00 17 1006.7
20260502005144 30 226 6.4 11.3 0.00 0.00 0.00 18 1006.7
20260502003641 31 262 8.0 12.9 0.00 0.00 0.00 18 1006.7
20260502002137 31 237 11.3 17.7 0.00 0.00 0.00 17 1006.7
20260502000635 30 216 6.4 9.7 0.00 0.00 0.00 18 1006.8
20260501235131 31 232 8.0 11.3 0.00 0.00 0.00 18 1006.7
20260501233627 31 189 3.2 9.7 0.00 0.00 0.00 18 1006.8
20260501232124 30 214 3.2 8.0 0.00 0.00 0.00 17 1007.1
20260501230623 30 237 3.2 11.3 0.00 0.00 0.00 17 1007.0
20260501225120 30 283 14.5 20.9 0.00 0.00 0.00 16 1007.1
20260501223617 30 217 17.7 22.5 0.00 0.00 0.00 18 1007.3
20260501222112 30 178 3.2 11.3 0.00 0.00 0.00 19 1007.5
20260501220610 30 270 4.8 11.3 0.00 0.00 0.00 19 1007.7
20260501215105 29 196 8.0 11.3 0.00 0.00 0.00 20 1008.0
20260501213604 30 213 9.7 14.5 0.00 0.00 0.00 20 1008.3
20260501212059 28 156 1.6 11.3 0.00 0.00 0.00 21 1008.2
20260501210556 30 188 6.4 12.9 0.00 0.00 0.00 20 1008.7
20260501205053 29 170 8.0 11.3 0.00 0.00 0.00 21 1008.7
20260501203553 28 193 8.0 12.9 0.00 0.00 0.00 22 1008.9
20260501202050 28 239 8.0 16.1 0.00 0.00 0.00 23 1009.1
20260501200547 28 8 3.2 11.3 0.00 0.00 0.00 22 1009.1
20260501195043 28 305 6.4 12.9 0.00 0.00 0.00 24 1009.2
20260501193538 27 183 9.7 11.3 0.00 0.00 0.00 25 1009.6
20260501192037 27 135 6.4 8.0 0.00 0.00 0.00 25 1009.7
20260501190532 27 168 8.0 9.7 0.00 0.00 0.00 25 1009.8
20260501185032 27 227 8.0 12.9 0.00 0.00 0.00 26 1009.9
20260501183531 27 151 3.2 8.0 0.00 0.00 0.00 26 1010.3
20260501182027 27 170 3.2 9.7 0.00 0.00 0.00 26 1010.5
20260501180525 26 180 6.4 8.0 0.00 0.00 0.00 27 1010.7
20260501175020 26 148 4.8 4.8 0.00 0.00 0.00 27 1010.8
20260501173518 25 45 4.8 4.8 0.00 0.00 0.00 28 1010.7
20260501172017 26 239 3.2 4.8 0.00 0.00 0.00 27 1010.8
20260501170513 25 191 4.8 8.0 0.00 0.00 0.00 29 1011.0
20260501165011 25 201 4.8 8.0 0.00 0.00 0.00 30 1010.8
20260501163508 25 198 8.0 11.3 0.00 0.00 0.00 30 1011.0
20260501162004 25 157 6.4 9.7 0.00 0.00 0.00 30 1010.7
20260501160501 24 209 3.2 4.8 0.00 0.00 0.00 32 1010.7
20260501154956 24 252 3.2 4.8 0.00 0.00 0.00 32 1010.7
20260501153454 23 162 4.8 8.0 0.00 0.00 0.00 33 1010.5
20260501151950 23 177 8.0 11.3 0.00 0.00 0.00 34 1010.3
20260501150445 22 112 3.2 4.8 0.00 0.00 0.00 36 1010.2
20260501144942 22 158 3.2 4.8 0.00 0.00 0.00 36 1010.0
20260501143442 22 151 4.8 9.7 0.00 0.00 0.00 36 1009.9